POPOO2 KPIT-KFFO

Flight info

Callsign POPOO2
Flight time N/A
Altitude 40000
Route DILNE TVTRN APE DANEI3
Aircraft C17/H-SDE1E2FGHIJ5RTUWXY/LB1D1

Departure

Time 2026-05-05 01:20
Airport Pittsburgh International Airport (KPIT)

Arrival

Time N/A
Airport Wright-Patterson Air Force Base (KFFO)
Time Latitude Longitude Altitude Speed Heading
2026-05-05 00:51 40.48092 -80.20958 1125 ft 0 kts 48°
2026-05-05 01:13 40.48094 -80.20954 1125 ft 2 kts 48°
2026-05-05 01:13 40.48095 -80.20952 1125 ft 0 kts 48°
2026-05-05 01:14 40.48107 -80.20945 1114 ft 4 kts
2026-05-05 01:14 40.48139 -80.20960 1117 ft 13 kts 335°
2026-05-05 01:14 40.48252 -80.21058 1137 ft 26 kts 322°
2026-05-05 01:15 40.48386 -80.21229 1136 ft 7 kts 317°
2026-05-05 01:15 40.48387 -80.21230 1135 ft 0 kts 317°
2026-05-05 01:15 40.48390 -80.21233 1135 ft 0 kts 317°
2026-05-05 01:17 40.48393 -80.21237 1139 ft 3 kts 318°
2026-05-05 01:17 40.48433 -80.21282 1136 ft 13 kts 319°
2026-05-05 01:18 40.48448 -80.21299 1140 ft 0 kts 317°
2026-05-05 01:18 40.48480 -80.21338 1137 ft 18 kts 316°
2026-05-05 01:18 40.48568 -80.21478 1134 ft 18 kts 295°
2026-05-05 01:18 40.48577 -80.21531 1131 ft 0 kts 273°
2026-05-05 01:19 40.48583 -80.21760 1135 ft 64 kts 271°
2026-05-05 01:19 40.48611 -80.22698 1145 ft 140 kts 272°
2026-05-05 01:20 40.48655 -80.24174 1502 ft 176 kts 270°
2026-05-05 01:20 40.48826 -80.25758 2529 ft 169 kts 278°
2026-05-05 01:20 40.49162 -80.27249 3532 ft 167 kts 274°
2026-05-05 01:20 40.49428 -80.28785 4214 ft 192 kts 274°
2026-05-05 01:21 40.49688 -80.30645 4740 ft 217 kts 275°
2026-05-05 01:21 40.50041 -80.32645 5792 ft 220 kts 281°
2026-05-05 01:21 40.50509 -80.34677 6366 ft 253 kts 283°
2026-05-05 01:21 40.51104 -80.37029 6751 ft 282 kts 285°
2026-05-05 01:22 40.51847 -80.39506 7705 ft 290 kts 292°
2026-05-05 01:22 40.52874 -80.41844 8621 ft 307 kts 296°
2026-05-05 01:22 40.53969 -80.44207 8918 ft 297 kts 297°
2026-05-05 01:22 40.55050 -80.46367 9600 ft 270 kts 299°
2026-05-05 01:23 40.56108 -80.48381 9788 ft 269 kts 300°
2026-05-05 01:23 40.57217 -80.50435 9721 ft 281 kts 301°
2026-05-05 01:23 40.58377 -80.52556 9804 ft 284 kts 292°
2026-05-05 01:23 40.58625 -80.55059 9843 ft 285 kts 258°
2026-05-05 01:24 40.57657 -80.57367 9856 ft 299 kts 233°
2026-05-05 01:24 40.56249 -80.59407 10089 ft 299 kts 231°
2026-05-05 01:24 40.54830 -80.61359 10574 ft 291 kts 230°
2026-05-05 01:24 40.53435 -80.63248 11062 ft 283 kts 230°
2026-05-05 01:25 40.52086 -80.65072 11487 ft 274 kts 231°
2026-05-05 01:25 40.50782 -80.66846 11998 ft 265 kts 231°
2026-05-05 01:25 40.49537 -80.68560 12505 ft 255 kts 231°
2026-05-05 01:25 40.48346 -80.70217 13010 ft 244 kts 232°
2026-05-05 01:26 40.47190 -80.71848 13547 ft 247 kts 232°
2026-05-05 01:26 40.46004 -80.73561 14034 ft 258 kts 232°
2026-05-05 01:26 40.44785 -80.75349 14525 ft 269 kts 232°
2026-05-05 01:26 40.43452 -80.77136 15029 ft 278 kts 233°
2026-05-05 01:27 40.42562 -80.79350 15584 ft 277 kts 253°
2026-05-05 01:27 40.42069 -80.81827 16091 ft 284 kts 259°
2026-05-05 01:27 40.41725 -80.84421 16613 ft 292 kts 262°
2026-05-05 01:27 40.41468 -80.87104 17145 ft 300 kts 264°
2026-05-05 01:28 40.41290 -80.89869 17661 ft 307 kts 266°
2026-05-05 01:28 40.41193 -80.92693 18191 ft 314 kts 268°
2026-05-05 01:28 40.41175 -80.95575 18653 ft 319 kts 270°
2026-05-05 01:28 40.41239 -80.98515 19125 ft 325 kts 272°
2026-05-05 01:29 40.41388 -81.01496 19605 ft 330 kts 274°
2026-05-05 01:29 40.41619 -81.04515 20103 ft 336 kts 276°
2026-05-05 01:29 40.41937 -81.07606 20604 ft 347 kts 278°
2026-05-05 01:29 40.42343 -81.10757 21100 ft 356 kts 279°
2026-05-05 01:30 40.42839 -81.13981 21625 ft 364 kts 281°
2026-05-05 01:30 40.43428 -81.17263 22151 ft 372 kts 283°
2026-05-05 01:30 40.44104 -81.20578 22701 ft 380 kts 285°
2026-05-05 01:30 40.44600 -81.22786 23039 ft 384 kts 286°
2026-05-05 01:31 40.45424 -81.26144 23552 ft 390 kts 288°
2026-05-05 01:31 40.46340 -81.29533 24016 ft 395 kts 289°
2026-05-05 01:31 40.47337 -81.32906 24490 ft 400 kts 291°
2026-05-05 01:31 40.48400 -81.36220 24954 ft 404 kts 292°
2026-05-05 01:32 40.49595 -81.39666 25462 ft 407 kts 294°
2026-05-05 01:32 40.50507 -81.43175 25952 ft 407 kts 277°
2026-05-05 01:32 40.50275 -81.46857 26474 ft 408 kts 253°
2026-05-05 01:32 40.48909 -81.50112 27011 ft 412 kts 231°
2026-05-05 01:33 40.46825 -81.52707 27548 ft 414 kts 223°
2026-05-05 01:33 40.44628 -81.55156 28078 ft 415 kts 222°
2026-05-05 01:33 40.42415 -81.57578 28595 ft 414 kts 222°
2026-05-05 01:33 40.40216 -81.60014 29159 ft 414 kts 223°
2026-05-05 01:34 40.38044 -81.62485 29716 ft 412 kts 224°
2026-05-05 01:34 40.35919 -81.64985 30234 ft 410 kts 225°
2026-05-05 01:34 40.33844 -81.67519 30699 ft 407 kts 226°
2026-05-05 01:34 40.31815 -81.70095 31205 ft 403 kts 227°
2026-05-05 01:35 40.29921 -81.72765 31700 ft 395 kts 238°
2026-05-05 01:35 40.28631 -81.75883 32227 ft 386 kts 249°
2026-05-05 01:35 40.27679 -81.79141 32761 ft 380 kts 253°
2026-05-05 01:35 40.26879 -81.82404 33296 ft 373 kts 257°
2026-05-05 01:36 40.26355 -81.85690 33839 ft 365 kts 262°
2026-05-05 01:36 40.25888 -81.88924 34314 ft 358 kts 261°
2026-05-05 01:36 40.25411 -81.92090 34795 ft 350 kts 261°
2026-05-05 01:36 40.24941 -81.95177 35286 ft 341 kts 261°